Inverness, FL

12:57 PM EDT on June 29, 2017 (GMT -0400)
Inverness

Weather History for KINF - September, 2013

Change the Weather History Date:

Sunday, September 22, 2013

  Actual Average (KBKV) Record (KBKV)
Temperature  
Mean Temperature 79 °F -  
Max Temperature 87 °F 85 °F 93 °F (1997)
Min Temperature 71 °F 68 °F 62 °F (1997)
Cooling Degree Days 14    
Growing Degree Days 29 (Base 50)    
Moisture  
Dew Point 73 °F    
Average Humidity 88    
Maximum Humidity 100    
Minimum Humidity 62    
Precipitation  
Precipitation 0.68 in - - ()
Sea Level Pressure  
Sea Level Pressure 29.82 in    
Wind  
Wind Speed 1 mph (SSW)    
Max Wind Speed 10 mph    
Max Gust Speed 10 mph    
Visibility 9 miles    
Events Rain , Thunderstorm    
Averages and records for this station are not official NWS values.
T = Trace of Precipitation, MM = Missing Value Source: NWS Daily Summary

Daily Weather History Graph

Daily Weather History Graph

Search for Another Location

Airport or City:

Trip Planner

Search our weather history database for the weather conditions in past years. The results will help you decide how hot, cold, wet, or windy it might be!

Date:

Astronomy

Sep. 22, 2013 Rise Set
Actual Time 7:17 AM EDT 7:25 PM EDT
Civil Twilight 6:54 AM EDT 7:49 PM EDT
Nautical Twilight 6:26 AM EDT 8:16 PM EDT
Astronomical Twilight 5:58 AM EDT 8:44 PM EDT
Moon 9:34 PM EDT (9/22) 10:18 AM EDT (9/22)
Length of Visible Light 12h 54m
Length of Day
12h 07m
Waning Gibbous, 89% of the Moon is Illuminated
Sep 22
Waning Gibbous
Sep 26
Last Quarter
Oct 4
New
Oct 11
First Quarter
Oct 18
Full

Hourly Weather History & Observations

Time (EDT) Temp. Heat Index Dew Point Humidity Pressure Visibility Wind Dir Wind Speed Gust Speed Precip Events Conditions
12:15 AM 71.6 °F - 69.8 °F 94% 29.82 in 10.0 mi Calm Calm - N/A   Scattered Clouds
12:35 AM 71.6 °F - 71.6 °F 100% 29.81 in 10.0 mi Calm Calm - N/A   Scattered Clouds
12:55 AM 73.4 °F - 71.6 °F 94% 29.81 in 10.0 mi Calm Calm - N/A   Scattered Clouds
1:15 AM 73.4 °F - 71.6 °F 94% 29.81 in 10.0 mi Calm Calm - N/A   Clear
1:35 AM 73.4 °F - 71.6 °F 94% 29.81 in 10.0 mi Calm Calm - N/A   Mostly Cloudy
1:55 AM 73.4 °F - 71.6 °F 94% 29.81 in 10.0 mi Calm Calm - N/A   Overcast
2:15 AM 73.4 °F - 71.6 °F 94% 29.82 in 10.0 mi Calm Calm - N/A   Overcast
2:35 AM 73.4 °F - 71.6 °F 94% 29.81 in 10.0 mi Calm Calm - N/A   Overcast
2:55 AM 73.4 °F - 71.6 °F 94% 29.79 in 10.0 mi South 3.5 mph - N/A   Overcast
3:15 AM 73.4 °F - 71.6 °F 94% 29.79 in 10.0 mi Calm Calm - N/A   Mostly Cloudy
3:35 AM 73.4 °F - 71.6 °F 94% 29.79 in 10.0 mi Calm Calm - N/A   Mostly Cloudy
3:55 AM 73.4 °F - 71.6 °F 94% 29.79 in 10.0 mi Calm Calm - N/A Rain Light Rain
4:15 AM 73.4 °F - 71.6 °F 94% 29.78 in 10.0 mi Calm Calm - N/A   Overcast
4:35 AM 73.4 °F - 71.6 °F 94% 29.78 in 10.0 mi Calm Calm - N/A   Overcast
4:55 AM 73.4 °F - 71.6 °F 94% 29.79 in 3.0 mi Calm Calm - 0.07 in Rain Heavy Rain
5:15 AM 73.4 °F - 71.6 °F 94% 29.79 in 10.0 mi Calm Calm - 0.01 in Rain Light Rain
5:35 AM 73.4 °F - 71.6 °F 94% 29.79 in 1.5 mi Calm Calm - 0.13 in Rain Heavy Rain
5:55 AM 73.4 °F - 71.6 °F 94% 29.79 in 7.0 mi Calm Calm - 0.16 in Rain Light Rain
6:15 AM 73.4 °F - 71.6 °F 94% 29.80 in 7.0 mi Calm Calm - N/A   Overcast
6:35 AM 73.4 °F - 73.4 °F 100% 29.80 in 7.0 mi Calm Calm - 0.01 in Rain Rain
6:55 AM 73.4 °F - 71.6 °F 94% 29.80 in 4.0 mi Calm Calm - 0.04 in Rain Heavy Rain
7:15 AM 73.4 °F - 71.6 °F 94% 29.80 in 3.0 mi Calm Calm - 0.08 in Rain Rain
7:35 AM 73.4 °F - 73.4 °F 100% 29.80 in 5.0 mi South 4.6 mph - 0.10 in   Drizzle
7:55 AM 73.4 °F - 71.6 °F 94% 29.80 in 10.0 mi South 4.6 mph - 0.10 in   Mostly Cloudy
8:15 AM 73.4 °F - 73.4 °F 100% 29.80 in 10.0 mi Calm Calm - N/A   Scattered Clouds
8:35 AM 73.4 °F - 73.4 °F 100% 29.80 in 10.0 mi Calm Calm - N/A   Scattered Clouds
8:55 AM 75.2 °F - 73.4 °F 94% 29.80 in 10.0 mi South 3.5 mph - N/A   Clear
9:15 AM 77.0 °F - 73.4 °F 89% 29.81 in 10.0 mi SSW 3.5 mph - N/A   Clear
9:35 AM 78.8 °F - 73.4 °F 83% 29.81 in 10.0 mi SSW 4.6 mph - N/A   Clear
9:55 AM 80.6 °F 85.4 °F 73.4 °F 79% 29.82 in 10.0 mi SSW 6.9 mph - N/A   Clear
10:15 AM 80.6 °F 85.4 °F 73.4 °F 79% 29.82 in 10.0 mi South 5.8 mph - N/A   Clear
10:35 AM 82.4 °F 88.2 °F 73.4 °F 74% 29.82 in 10.0 mi South 6.9 mph - N/A   Clear
10:55 AM 82.4 °F 89.5 °F 75.2 °F 79% 29.82 in 10.0 mi SW 5.8 mph - N/A   Scattered Clouds
11:15 AM 84.2 °F 92.3 °F 75.2 °F 74% 29.82 in 10.0 mi SW 5.8 mph - N/A   Scattered Clouds
11:35 AM 86.0 °F 93.4 °F 73.4 °F 66% 29.81 in 10.0 mi SSW 8.1 mph - N/A   Mostly Cloudy
11:55 AM 86.0 °F 93.4 °F 73.4 °F 66% 29.81 in 10.0 mi WSW 4.6 mph - N/A   Mostly Cloudy
12:15 PM 86.0 °F 93.4 °F 73.4 °F 66% 29.81 in 10.0 mi South 3.5 mph - N/A   Mostly Cloudy
12:35 PM 87.8 °F 95.6 °F 73.4 °F 62% 29.81 in 10.0 mi SW 4.6 mph - N/A   Mostly Cloudy
12:55 PM 86.0 °F 91.8 °F 71.6 °F 62% 29.82 in 10.0 mi SW 3.5 mph - N/A   Mostly Cloudy
1:15 PM 86.0 °F 93.4 °F 73.4 °F 66% 29.81 in 10.0 mi Calm Calm - N/A   Overcast
1:35 PM 82.4 °F 86.3 °F 69.8 °F 66% 29.82 in 10.0 mi South 10.4 mph - N/A   Mostly Cloudy
1:55 PM 80.6 °F 84.6 °F 71.6 °F 74% 29.82 in 10.0 mi South 4.6 mph 10.4 mph N/A   Mostly Cloudy
2:15 PM 82.4 °F 87.2 °F 71.6 °F 70% 29.81 in 10.0 mi Calm Calm - N/A   Scattered Clouds
2:35 PM 82.4 °F 87.2 °F 71.6 °F 70% 29.80 in 10.0 mi SSE 5.8 mph - N/A   Scattered Clouds
2:55 PM 77.0 °F - 71.6 °F 83% 29.80 in 1.8 mi Calm Calm - 0.14 in Rain Light Rain
3:15 PM 78.8 °F - 73.4 °F 83% 29.79 in 10.0 mi Calm Calm - 0.05 in   Overcast
3:35 PM 78.8 °F - 75.2 °F 89% 29.80 in 4.0 mi Calm Calm - 0.08 in Rain Heavy Rain
3:55 PM 78.8 °F - 75.2 °F 89% 29.80 in 10.0 mi Calm Calm - 0.12 in Thunderstorm Thunderstorm
4:15 PM 78.8 °F - 77.0 °F 94% 29.81 in 10.0 mi Calm Calm - N/A   Mostly Cloudy
4:35 PM 78.8 °F - 75.2 °F 89% 29.81 in 10.0 mi Calm Calm - N/A   Mostly Cloudy
4:55 PM 78.8 °F - 75.2 °F 89% 29.81 in 10.0 mi Calm Calm - N/A   Scattered Clouds
5:15 PM 80.6 °F 86.2 °F 75.2 °F 84% 29.81 in 10.0 mi NNE 4.6 mph - N/A   Scattered Clouds
5:35 PM 80.6 °F 86.2 °F 75.2 °F 84% 29.81 in 10.0 mi NNE 4.6 mph - N/A   Scattered Clouds
5:55 PM 78.8 °F - 75.2 °F 89% 29.81 in 10.0 mi Calm Calm - N/A   Scattered Clouds
6:15 PM 78.8 °F - 73.4 °F 83% 29.81 in 10.0 mi Calm Calm - N/A   Clear
6:35 PM 78.8 °F - 73.4 °F 83% 29.82 in 10.0 mi NE 3.5 mph - N/A   Clear
6:55 PM 78.8 °F - 75.2 °F 89% 29.82 in 10.0 mi Calm Calm - N/A Rain Light Rain
7:15 PM 78.8 °F - 75.2 °F 89% 29.82 in 10.0 mi Calm Calm - N/A   Overcast
7:35 PM 77.0 °F - 75.2 °F 94% 29.82 in 10.0 mi Calm Calm - N/A Rain Light Rain
7:55 PM 77.0 °F - 75.2 °F 94% 29.83 in 10.0 mi Calm Calm - N/A   Mostly Cloudy
8:15 PM 77.0 °F - 75.2 °F 94% 29.84 in 10.0 mi Calm Calm - N/A   Overcast
8:35 PM 77.0 °F - 75.2 °F 94% 29.84 in 10.0 mi Calm Calm - N/A Rain Light Rain
8:55 PM 77.0 °F - 75.2 °F 94% 29.85 in 7.0 mi Calm Calm - N/A Rain Light Rain
9:15 PM 77.0 °F - 77.0 °F 100% 29.86 in 7.0 mi Calm Calm - N/A Rain Light Rain
9:35 PM 77.0 °F - 77.0 °F 100% 29.86 in 10.0 mi Calm Calm - N/A   Mostly Cloudy
9:55 PM 77.0 °F - 75.2 °F 94% 29.86 in 7.0 mi Calm Calm - N/A   Scattered Clouds
10:15 PM 77.0 °F - 75.2 °F 94% 29.87 in 5.0 mi Calm Calm - N/A   Clear
10:35 PM 77.0 °F - 75.2 °F 94% 29.86 in 5.0 mi Calm Calm - N/A   Clear
10:55 PM 77.0 °F - 75.2 °F 94% 29.87 in 5.0 mi Calm Calm - 0.01 in Rain Light Rain
11:15 PM 77.0 °F - 75.2 °F 94% 29.88 in 5.0 mi Calm Calm - N/A Rain Light Rain
11:35 PM 77.0 °F - 75.2 °F 94% 29.88 in 5.0 mi Calm Calm - 0.02 in Rain Light Rain
11:55 PM 77.0 °F - 75.2 °F 94% 29.88 in 4.0 mi Calm Calm - 0.04 in Rain Rain